| time (UTC) | temp C | wind direction | speed KPH | gust KPH | rain 1hr cm | rain 24hr cm | rain mn cm | humidity % | barometer mb |
| 20260906181043 | 32 | 292 | 0.0 | 4.8 | 0.00 | 0.05 | 0.05 | 64 | 1015.2 |
| 20260906180541 | 32 | 150 | 0.0 | 4.8 | 0.00 | 0.05 | 0.05 | 63 | 1015.2 |
| 20260906180108 | 32 | 116 | 1.6 | 4.8 | 0.00 | 0.05 | 0.05 | 63 | 1015.2 |
| 20260906175545 | 32 | 160 | 0.0 | 4.8 | 0.00 | 0.05 | 0.05 | 63 | 1015.4 |
| 20260906175044 | 32 | 0 | 0.0 | 3.2 | 0.00 | 0.05 | 0.05 | 65 | 1015.3 |
| 20260906174558 | 31 | 0 | 0.0 | 4.8 | 0.00 | 0.05 | 0.05 | 66 | 1015.4 |
| 20260906174045 | 31 | 140 | 1.6 | 8.0 | 0.00 | 0.05 | 0.05 | 66 | 1015.4 |
| 20260906173544 | 31 | 141 | 1.6 | 8.0 | 0.00 | 0.05 | 0.05 | 68 | 1015.5 |
| 20260906173101 | 31 | 0 | 0.0 | 6.4 | 0.00 | 0.05 | 0.05 | 70 | 1015.5 |
| 20260906172546 | 31 | 181 | 1.6 | 6.4 | 0.00 | 0.05 | 0.05 | 70 | 1015.5 |
| 20260906172042 | 31 | 95 | 0.0 | 6.4 | 0.00 | 0.05 | 0.05 | 70 | 1015.6 |
| 20260906171606 | 30 | 72 | 1.6 | 9.7 | 0.00 | 0.05 | 0.05 | 71 | 1015.8 |
| 20260906171041 | 30 | 141 | 0.0 | 9.7 | 0.00 | 0.05 | 0.05 | 71 | 1015.9 |
| 20260906170541 | 30 | 129 | 0.0 | 8.0 | 0.00 | 0.05 | 0.05 | 73 | 1015.8 |
| 20260906165541 | 30 | 190 | 0.0 | 8.0 | 0.00 | 0.05 | 0.05 | 75 | 1015.9 |
| 20260906165044 | 29 | 148 | 0.0 | 8.0 | 0.00 | 0.05 | 0.05 | 78 | 1016.0 |
| 20260906164559 | 28 | 68 | 1.6 | 8.0 | 0.00 | 0.05 | 0.05 | 77 | 1016.0 |
| 20260906164042 | 28 | 0 | 0.0 | 4.8 | 0.00 | 0.05 | 0.05 | 80 | 1016.1 |
| 20260906163543 | 28 | 152 | 0.0 | 6.4 | 0.00 | 0.05 | 0.05 | 81 | 1016.1 |
| 20260906163107 | 27 | 65 | 1.6 | 6.4 | 0.00 | 0.05 | 0.05 | 82 | 1016.2 |
| 20260906162541 | 27 | 0 | 0.0 | 3.2 | 0.00 | 0.05 | 0.05 | 83 | 1016.3 |
| 20260906162041 | 27 | 69 | 1.6 | 3.2 | 0.00 | 0.05 | 0.05 | 83 | 1016.4 |
| 20260906161559 | 27 | 0 | 0.0 | 0.0 | 0.00 | 0.05 | 0.05 | 86 | 1016.4 |
| 20260906161042 | 27 | 0 | 0.0 | 0.0 | 0.00 | 0.05 | 0.05 | 86 | 1016.4 |
| 20260906160542 | 27 | 0 | 0.0 | 0.0 | 0.00 | 0.05 | 0.05 | 87 | 1016.4 |
| 20260906160110 | 27 | 0 | 0.0 | 0.0 | 0.00 | 0.05 | 0.05 | 88 | 1016.6 |
| 20260906155541 | 26 | 0 | 0.0 | 0.0 | 0.00 | 0.05 | 0.05 | 88 | 1016.6 |
| 20260906155042 | 26 | 0 | 0.0 | 1.6 | 0.03 | 0.05 | 0.05 | 88 | 1016.6 |
| 20260906154605 | 26 | 0 | 0.0 | 1.6 | 0.05 | 0.05 | 0.05 | 89 | 1016.7 |
| 20260906154043 | 26 | 0 | 0.0 | 3.2 | 0.05 | 0.05 | 0.05 | 88 | 1016.7 |
| 20260906153550 | 26 | 0 | 0.0 | 3.2 | 0.05 | 0.05 | 0.05 | 87 | 1016.6 |
| 20260906153100 | 26 | 274 | 0.0 | 4.8 | 0.05 | 0.05 | 0.05 | 86 | 1016.6 |
| 20260906152546 | 26 | 0 | 0.0 | 4.8 | 0.05 | 0.05 | 0.05 | 85 | 1016.1 |
| 20260906152048 | 26 | 0 | 1.6 | 6.4 | 0.05 | 0.05 | 0.05 | 85 | 1016.0 |
| 20260906151607 | 26 | 117 | 0.0 | 6.4 | 0.05 | 0.05 | 0.05 | 86 | 1016.0 |
| 20260906151045 | 26 | 0 | 0.0 | 4.8 | 0.05 | 0.05 | 0.05 | 86 | 1015.9 |
| 20260906150546 | 26 | 0 | 1.6 | 8.0 | 0.05 | 0.05 | 0.05 | 86 | 1015.9 |
| 20260906145545 | 26 | 88 | 3.2 | 8.0 | 0.05 | 0.05 | 0.05 | 86 | 1015.9 |
| 20260906145045 | 27 | 0 | 1.6 | 11.3 | 0.03 | 0.03 | 0.03 | 86 | 1015.9 |
| 20260906144602 | 27 | 113 | 1.6 | 11.3 | 0.00 | 0.00 | 0.00 | 84 | 1015.7 |
| 20260906144045 | 27 | 103 | 4.8 | 11.3 | 0.00 | 0.00 | 0.00 | 84 | 1015.6 |
| 20260906143545 | 27 | 78 | 3.2 | 9.7 | 0.00 | 0.00 | 0.00 | 83 | 1015.7 |
| 20260906143113 | 26 | 101 | 3.2 | 9.7 | 0.00 | 0.00 | 0.00 | 84 | 1015.8 |
| 20260906142545 | 26 | 77 | 3.2 | 11.3 | 0.00 | 0.00 | 0.00 | 84 | 1015.9 |
| 20260906142046 | 26 | 68 | 3.2 | 12.9 | 0.00 | 0.00 | 0.00 | 85 | 1016.0 |
| 20260906141556 | 26 | 55 | 4.8 | 12.9 | 0.00 | 0.00 | 0.00 | 85 | 1016.0 |
| 20260906141045 | 26 | 94 | 4.8 | 12.9 | 0.00 | 0.00 | 0.00 | 85 | 1016.0 |
| 20260906140546 | 26 | 73 | 3.2 | 9.7 | 0.00 | 0.00 | 0.00 | 86 | 1016.0 |
| 20260906140106 | 26 | 117 | 3.2 | 9.7 | 0.00 | 0.00 | 0.00 | 86 | 1016.1 |
| 20260906135545 | 26 | 86 | 1.6 | 11.3 | 0.00 | 0.00 | 0.00 | 86 | 1016.1 |
| 20260906135046 | 26 | 96 | 3.2 | 11.3 | 0.00 | 0.00 | 0.00 | 86 | 1016.1 |
| 20260906134601 | 26 | 60 | 3.2 | 9.7 | 0.00 | 0.00 | 0.00 | 86 | 1016.1 |
| 20260906134045 | 26 | 116 | 3.2 | 11.3 | 0.00 | 0.00 | 0.00 | 86 | 1016.1 |
| 20260906133545 | 26 | 131 | 3.2 | 11.3 | 0.00 | 0.00 | 0.00 | 85 | 1016.1 |
| 20260906133059 | 26 | 152 | 3.2 | 8.0 | 0.00 | 0.00 | 0.00 | 85 | 1016.1 |
| 20260906132545 | 26 | 90 | 4.8 | 8.0 | 0.00 | 0.00 | 0.00 | 86 | 1016.1 |
| 20260906132046 | 26 | 104 | 3.2 | 8.0 | 0.00 | 0.00 | 0.00 | 87 | 1016.0 |
| 20260906131557 | 25 | 89 | 3.2 | 8.0 | 0.00 | 0.00 | 0.00 | 88 | 1016.1 |
| 20260906131044 | 25 | 84 | 0.0 | 4.8 | 0.00 | 0.00 | 0.00 | 88 | 1016.0 |
| 20260906130547 | 25 | 0 | 0.0 | 4.8 | 0.00 | 0.00 | 0.00 | 89 | 1016.1 |
| 20260906130104 | 25 | 0 | 0.0 | 8.0 | 0.00 | 0.00 | 0.00 | 89 | 1016.0 |
| 20260906125545 | 25 | 75 | 1.6 | 8.0 | 0.00 | 0.00 | 0.00 | 89 | 1015.9 |
| 20260906125045 | 25 | 122 | 1.6 | 6.4 | 0.00 | 0.00 | 0.00 | 89 | 1015.9 |
| 20260906124603 | 24 | 82 | 0.0 | 4.8 | 0.00 | 0.00 | 0.00 | 90 | 1015.7 |
| 20260906124045 | 24 | 0 | 0.0 | 0.0 | 0.00 | 0.00 | 0.00 | 90 | 1015.7 |
| 20260906123545 | 24 | 0 | 0.0 | 0.0 | 0.00 | 0.00 | 0.00 | 90 | 1015.7 |
| 20260906123059 | 24 | 0 | 0.0 | 0.0 | 0.00 | 0.00 | 0.00 | 91 | 1015.7 |
| 20260906122545 | 24 | 0 | 0.0 | 0.0 | 0.00 | 0.00 | 0.00 | 91 | 1015.5 |
| 20260906122043 | 23 | 0 | 0.0 | 0.0 | 0.00 | 0.00 | 0.00 | 91 | 1015.4 |
| 20260906121558 | 23 | 0 | 0.0 | 0.0 | 0.00 | 0.00 | 0.00 | 91 | 1015.5 |
| 20260906121043 | 23 | 0 | 0.0 | 0.0 | 0.00 | 0.00 | 0.00 | 91 | 1015.4 |
| 20260906120545 | 23 | 0 | 0.0 | 0.0 | 0.00 | 0.00 | 0.00 | 91 | 1015.4 |
| 20260906120114 | 23 | 0 | 0.0 | 3.2 | 0.00 | 0.00 | 0.00 | 91 | 1015.3 |
| 20260906115545 | 23 | 0 | 0.0 | 3.2 | 0.00 | 0.00 | 0.00 | 90 | 1015.2 |
| 20260906115044 | 23 | 116 | 0.0 | 1.6 | 0.00 | 0.00 | 0.00 | 90 | 1015.0 |
| 20260906114558 | 23 | 0 | 0.0 | 3.2 | 0.00 | 0.00 | 0.00 | 90 | 1015.0 |
| 20260906114044 | 23 | 0 | 0.0 | 3.2 | 0.00 | 0.00 | 0.00 | 90 | 1014.9 |
| 20260906113545 | 23 | 79 | 0.0 | 3.2 | 0.00 | 0.00 | 0.00 | 90 | 1015.0 |
| 20260906113100 | 24 | 63 | 0.0 | 3.2 | 0.00 | 0.00 | 0.00 | 90 | 1014.9 |
| 20260906112544 | 24 | 0 | 0.0 | 3.2 | 0.00 | 0.00 | 0.00 | 90 | 1015.0 |
| 20260906112045 | 24 | 119 | 0.0 | 3.2 | 0.00 | 0.00 | 0.00 | 90 | 1014.9 |
| 20260906111608 | 24 | 0 | 0.0 | 1.6 | 0.00 | 0.00 | 0.00 | 90 | 1015.1 |
| 20260906111045 | 24 | 0 | 0.0 | 0.0 | 0.00 | 0.00 | 0.00 | 90 | 1015.2 |
| 20260906110543 | 24 | 0 | 0.0 | 0.0 | 0.00 | 0.00 | 0.00 | 90 | 1015.2 |
| 20260906110058 | 24 | 0 | 0.0 | 1.6 | 0.00 | 0.00 | 0.00 | 89 | 1015.2 |
| 20260906105543 | 24 | 0 | 0.0 | 1.6 | 0.00 | 0.00 | 0.00 | 89 | 1015.0 |
| 20260906105045 | 24 | 0 | 0.0 | 1.6 | 0.00 | 0.00 | 0.00 | 89 | 1015.0 |
| 20260906104558 | 24 | 0 | 0.0 | 1.6 | 0.00 | 0.00 | 0.00 | 89 | 1014.9 |
| 20260906104045 | 24 | 0 | 0.0 | 1.6 | 0.00 | 0.00 | 0.00 | 89 | 1014.8 |
| 20260906103546 | 24 | 0 | 0.0 | 0.0 | 0.00 | 0.00 | 0.00 | 89 | 1014.7 |
| 20260906103056 | 24 | 0 | 0.0 | 0.0 | 0.00 | 0.00 | 0.00 | 89 | 1014.6 |
| 20260906102545 | 24 | 0 | 0.0 | 0.0 | 0.00 | 0.00 | 0.00 | 89 | 1014.6 |
| 20260906102046 | 24 | 0 | 0.0 | 1.6 | 0.00 | 0.00 | 0.00 | 89 | 1014.6 |
| 20260906101558 | 24 | 0 | 0.0 | 1.6 | 0.00 | 0.00 | 0.00 | 89 | 1014.5 |
| 20260906101043 | 24 | 0 | 0.0 | 1.6 | 0.00 | 0.00 | 0.00 | 89 | 1014.6 |
| 20260906100544 | 24 | 0 | 0.0 | 1.6 | 0.00 | 0.00 | 0.00 | 89 | 1014.5 |
| 20260906100058 | 24 | 0 | 0.0 | 0.0 | 0.00 | 0.00 | 0.00 | 89 | 1014.6 |
| 20260906095543 | 24 | 0 | 0.0 | 0.0 | 0.00 | 0.00 | 0.00 | 89 | 1014.5 |
| 20260906095043 | 24 | 0 | 0.0 | 0.0 | 0.00 | 0.00 | 0.00 | 89 | 1014.6 |
| 20260906094557 | 24 | 0 | 0.0 | 1.6 | 0.00 | 0.00 | 0.00 | 89 | 1014.5 |
| 20260906094042 | 24 | 0 | 0.0 | 1.6 | 0.00 | 0.00 | 0.00 | 88 | 1014.5 |
| 20260906093545 | 24 | 0 | 0.0 | 0.0 | 0.00 | 0.00 | 0.00 | 88 | 1014.6 |
| 20260906093100 | 24 | 0 | 0.0 | 0.0 | 0.00 | 0.00 | 0.00 | 88 | 1014.6 |
| 20260906092545 | 24 | 0 | 0.0 | 0.0 | 0.00 | 0.00 | 0.00 | 88 | 1014.6 |
| 20260906092046 | 24 | 0 | 0.0 | 0.0 | 0.00 | 0.00 | 0.00 | 89 | 1014.6 |
| 20260906091605 | 24 | 0 | 0.0 | 0.0 | 0.00 | 0.00 | 0.00 | 89 | 1014.5 |
| 20260906091047 | 24 | 0 | 0.0 | 0.0 | 0.00 | 0.00 | 0.00 | 88 | 1014.4 |
| 20260906090543 | 24 | 0 | 0.0 | 0.0 | 0.00 | 0.00 | 0.00 | 88 | 1014.5 |
| 20260906085543 | 24 | 0 | 0.0 | 1.6 | 0.00 | 0.00 | 0.00 | 88 | 1014.5 |
| 20260906085041 | 24 | 0 | 0.0 | 1.6 | 0.00 | 0.00 | 0.00 | 88 | 1014.6 |
| 20260906084605 | 24 | 132 | 0.0 | 1.6 | 0.00 | 0.00 | 0.00 | 88 | 1014.5 |
| 20260906084046 | 24 | 0 | 0.0 | 0.0 | 0.00 | 0.00 | 0.00 | 88 | 1014.4 |
| 20260906083544 | 24 | 0 | 0.0 | 0.0 | 0.00 | 0.00 | 0.00 | 88 | 1014.4 |
| 20260906083101 | 24 | 0 | 0.0 | 0.0 | 0.00 | 0.00 | 0.00 | 87 | 1014.4 |
| 20260906082541 | 25 | 0 | 0.0 | 0.0 | 0.00 | 0.00 | 0.00 | 87 | 1014.4 |
| 20260906082043 | 25 | 0 | 0.0 | 0.0 | 0.00 | 0.00 | 0.00 | 87 | 1014.3 |
| 20260906081603 | 25 | 0 | 0.0 | 0.0 | 0.00 | 0.00 | 0.00 | 86 | 1014.4 |
| 20260906081041 | 25 | 0 | 0.0 | 0.0 | 0.00 | 0.00 | 0.00 | 86 | 1014.4 |
| 20260906080542 | 25 | 0 | 0.0 | 0.0 | 0.00 | 0.00 | 0.00 | 86 | 1014.3 |
| 20260906080109 | 25 | 0 | 0.0 | 0.0 | 0.00 | 0.00 | 0.00 | 86 | 1014.3 |
| 20260906075540 | 25 | 0 | 0.0 | 0.0 | 0.00 | 0.00 | 0.00 | 86 | 1014.2 |
| 20260906075044 | 25 | 0 | 0.0 | 0.0 | 0.00 | 0.00 | 0.00 | 86 | 1014.1 |
| 20260906074600 | 25 | 0 | 0.0 | 0.0 | 0.00 | 0.00 | 0.00 | 86 | 1014.2 |
| 20260906074042 | 25 | 0 | 0.0 | 0.0 | 0.00 | 0.00 | 0.00 | 85 | 1014.4 |
| 20260906073542 | 25 | 0 | 0.0 | 1.6 | 0.00 | 0.00 | 0.00 | 85 | 1014.4 |
| 20260906073059 | 25 | 0 | 0.0 | 1.6 | 0.00 | 0.00 | 0.00 | 85 | 1014.3 |
| 20260906072541 | 25 | 0 | 0.0 | 4.8 | 0.00 | 0.00 | 0.00 | 85 | 1014.4 |
| 20260906072042 | 25 | 114 | 0.0 | 4.8 | 0.00 | 0.00 | 0.00 | 85 | 1014.3 |
| 20260906071604 | 25 | 0 | 0.0 | 3.2 | 0.00 | 0.00 | 0.00 | 85 | 1014.3 |
| 20260906071043 | 25 | 0 | 0.0 | 4.8 | 0.00 | 0.00 | 0.00 | 85 | 1014.4 |
| 20260906070540 | 25 | 128 | 0.0 | 4.8 | 0.00 | 0.00 | 0.00 | 84 | 1014.4 |
| 20260906070058 | 25 | 123 | 0.0 | 4.8 | 0.00 | 0.00 | 0.00 | 85 | 1014.4 |
| 20260906065543 | 25 | 0 | 0.0 | 1.6 | 0.00 | 0.00 | 0.00 | 85 | 1014.5 |
| 20260906065044 | 25 | 0 | 0.0 | 1.6 | 0.00 | 0.00 | 0.00 | 84 | 1014.6 |
| 20260906064555 | 25 | 122 | 0.0 | 0.0 | 0.00 | 0.00 | 0.00 | 85 | 1014.6 |
| 20260906064041 | 25 | 0 | 0.0 | 0.0 | 0.00 | 0.00 | 0.00 | 84 | 1014.6 |
| 20260906063541 | 25 | 0 | 0.0 | 0.0 | 0.00 | 0.00 | 0.00 | 84 | 1014.7 |
| 20260906063059 | 25 | 0 | 0.0 | 0.0 | 0.00 | 0.00 | 0.00 | 84 | 1014.7 |
| 20260906062546 | 26 | 0 | 0.0 | 0.0 | 0.00 | 0.00 | 0.00 | 84 | 1014.7 |
| 20260906062043 | 26 | 0 | 0.0 | 0.0 | 0.00 | 0.00 | 0.00 | 83 | 1014.8 |
| 20260906061559 | 26 | 0 | 0.0 | 0.0 | 0.00 | 0.00 | 0.00 | 83 | 1014.7 |
| 20260906061042 | 26 | 0 | 0.0 | 0.0 | 0.00 | 0.00 | 0.00 | 83 | 1014.7 |
| 20260906060543 | 26 | 0 | 0.0 | 0.0 | 0.00 | 0.00 | 0.00 | 82 | 1014.6 |
| 20260906060059 | 26 | 0 | 0.0 | 0.0 | 0.00 | 0.00 | 0.00 | 82 | 1014.6 |
| 20260906055542 | 26 | 0 | 0.0 | 0.0 | 0.00 | 0.00 | 0.00 | 82 | 1014.7 |
| 20260906055045 | 26 | 0 | 0.0 | 0.0 | 0.00 | 0.00 | 0.00 | 81 | 1014.7 |
| 20260906054602 | 26 | 0 | 0.0 | 0.0 | 0.00 | 0.00 | 0.00 | 81 | 1014.6 |
| 20260906054045 | 26 | 0 | 0.0 | 0.0 | 0.00 | 0.00 | 0.00 | 81 | 1014.5 |
| 20260906053544 | 26 | 0 | 0.0 | 3.2 | 0.00 | 0.00 | 0.00 | 81 | 1014.6 |
| 20260906053058 | 26 | 0 | 0.0 | 4.8 | 0.00 | 0.00 | 0.00 | 80 | 1014.7 |
| 20260906052546 | 27 | 0 | 0.0 | 4.8 | 0.00 | 0.00 | 0.00 | 80 | 1014.7 |
| 20260906052045 | 27 | 127 | 0.0 | 1.6 | 0.00 | 0.00 | 0.00 | 80 | 1014.8 |
| 20260906051607 | 27 | 0 | 0.0 | 0.0 | 0.00 | 0.00 | 0.00 | 80 | 1014.7 |
| 20260906051044 | 27 | 0 | 0.0 | 0.0 | 0.00 | 0.00 | 0.00 | 80 | 1014.7 |
| 20260906050545 | 27 | 0 | 0.0 | 0.0 | 0.00 | 0.00 | 0.00 | 79 | 1014.7 |
| 20260906050057 | 27 | 0 | 0.0 | 0.0 | 0.00 | 0.00 | 0.00 | 79 | 1014.7 |
| 20260906045547 | 27 | 0 | 0.0 | 0.0 | 0.00 | 0.00 | 0.00 | 79 | 1014.7 |
| 20260906045049 | 27 | 0 | 0.0 | 0.0 | 0.00 | 0.00 | 0.00 | 79 | 1014.7 |
| 20260906044553 | 27 | 0 | 0.0 | 0.0 | 0.00 | 0.00 | 0.00 | 79 | 1014.6 |
| 20260906044045 | 27 | 0 | 0.0 | 0.0 | 0.00 | 0.00 | 0.00 | 79 | 1014.6 |
| 20260906043542 | 27 | 0 | 0.0 | 0.0 | 0.00 | 0.00 | 0.00 | 79 | 1014.6 |
| 20260906043056 | 27 | 0 | 0.0 | 0.0 | 0.00 | 0.00 | 0.00 | 78 | 1014.7 |
| 20260906042545 | 27 | 0 | 0.0 | 0.0 | 0.00 | 0.00 | 0.00 | 78 | 1014.9 |
| 20260906042043 | 27 | 0 | 0.0 | 0.0 | 0.00 | 0.00 | 0.00 | 78 | 1014.7 |
| 20260906041557 | 27 | 0 | 0.0 | 0.0 | 0.00 | 0.00 | 0.00 | 77 | 1014.7 |
| 20260906041044 | 28 | 0 | 0.0 | 1.6 | 0.00 | 0.00 | 0.00 | 77 | 1014.7 |
| 20260906040544 | 28 | 0 | 0.0 | 4.8 | 0.00 | 0.00 | 0.00 | 77 | 1014.7 |
| 20260906040054 | 28 | 0 | 0.0 | 4.8 | 0.00 | 0.00 | 0.00 | 77 | 1014.7 |
| 20260906035544 | 28 | 70 | 0.0 | 4.8 | 0.00 | 0.00 | 0.00 | 77 | 1014.7 |
| 20260906035048 | 28 | 0 | 0.0 | 3.2 | 0.00 | 0.00 | 0.00 | 77 | 1014.6 |
| 20260906034559 | 28 | 0 | 0.0 | 3.2 | 0.00 | 0.00 | 0.00 | 77 | 1014.7 |
| 20260906034045 | 28 | 0 | 0.0 | 3.2 | 0.00 | 0.00 | 0.00 | 77 | 1014.7 |
| 20260906033543 | 28 | 0 | 0.0 | 3.2 | 0.00 | 0.00 | 0.00 | 77 | 1014.5 |
| 20260906033056 | 28 | 0 | 0.0 | 0.0 | 0.00 | 0.00 | 0.00 | 77 | 1014.5 |
| 20260906032543 | 28 | 0 | 0.0 | 0.0 | 0.00 | 0.00 | 0.00 | 77 | 1014.5 |
| 20260906032043 | 28 | 0 | 0.0 | 1.6 | 0.00 | 0.00 | 0.00 | 77 | 1014.5 |
| 20260906031600 | 28 | 0 | 0.0 | 1.6 | 0.00 | 0.00 | 0.00 | 76 | 1014.4 |
| 20260906031044 | 28 | 0 | 0.0 | 1.6 | 0.00 | 0.00 | 0.00 | 76 | 1014.3 |
| 20260906030545 | 28 | 72 | 0.0 | 3.2 | 0.00 | 0.00 | 0.00 | 76 | 1014.0 |
| 20260906030116 | 28 | 0 | 0.0 | 6.4 | 0.00 | 0.00 | 0.00 | 76 | 1013.9 |
| 20260906025542 | 28 | 82 | 1.6 | 6.4 | 0.00 | 0.00 | 0.00 | 76 | 1013.9 |
| 20260906025044 | 28 | 75 | 0.0 | 6.4 | 0.00 | 0.00 | 0.00 | 76 | 1013.9 |
| 20260906024627 | 28 | 72 | 1.6 | 6.4 | 0.00 | 0.00 | 0.00 | 76 | 1013.9 |
| 20260906024043 | 28 | 0 | 0.0 | 0.0 | 0.00 | 0.00 | 0.00 | 76 | 1013.8 |
| 20260906023543 | 28 | 0 | 0.0 | 0.0 | 0.00 | 0.00 | 0.00 | 76 | 1013.7 |
| 20260906023059 | 28 | 0 | 0.0 | 0.0 | 0.00 | 0.00 | 0.00 | 76 | 1013.8 |
| 20260906022547 | 29 | 0 | 0.0 | 0.0 | 0.00 | 0.00 | 0.00 | 76 | 1013.8 |
| 20260906022043 | 29 | 0 | 0.0 | 0.0 | 0.00 | 0.00 | 0.00 | 75 | 1013.6 |
| 20260906021612 | 29 | 0 | 0.0 | 0.0 | 0.00 | 0.00 | 0.00 | 76 | 1013.5 |
| 20260906021043 | 29 | 0 | 0.0 | 0.0 | 0.00 | 0.00 | 0.00 | 75 | 1013.4 |
| 20260906020544 | 29 | 0 | 0.0 | 0.0 | 0.00 | 0.00 | 0.00 | 75 | 1013.2 |
| 20260906020057 | 29 | 0 | 0.0 | 0.0 | 0.00 | 0.00 | 0.00 | 75 | 1013.1 |
| 20260906015543 | 29 | 0 | 0.0 | 0.0 | 0.00 | 0.00 | 0.00 | 75 | 1013.1 |
| 20260906015045 | 29 | 0 | 0.0 | 0.0 | 0.00 | 0.00 | 0.00 | 74 | 1013.1 |
| 20260906014609 | 30 | 0 | 0.0 | 0.0 | 0.00 | 0.00 | 0.00 | 73 | 1013.0 |
| 20260906014044 | 30 | 0 | 0.0 | 0.0 | 0.00 | 0.00 | 0.00 | 73 | 1012.9 |
| 20260906013544 | 30 | 0 | 0.0 | 1.6 | 0.00 | 0.00 | 0.00 | 73 | 1012.8 |
| 20260906013102 | 30 | 0 | 0.0 | 3.2 | 0.00 | 0.00 | 0.00 | 73 | 1012.8 |
| 20260906012544 | 30 | 73 | 0.0 | 3.2 | 0.00 | 0.00 | 0.00 | 73 | 1012.8 |
| 20260906012046 | 30 | 0 | 0.0 | 3.2 | 0.00 | 0.00 | 0.00 | 73 | 1012.7 |
| 20260906011602 | 30 | 0 | 0.0 | 3.2 | 0.00 | 0.00 | 0.00 | 73 | 1012.6 |
| 20260906011045 | 30 | 0 | 0.0 | 1.6 | 0.00 | 0.00 | 0.00 | 73 | 1012.5 |
| 20260906010543 | 30 | 0 | 0.0 | 0.0 | 0.00 | 0.00 | 0.00 | 73 | 1012.5 |
| 20260906010111 | 30 | 0 | 0.0 | 0.0 | 0.00 | 0.00 | 0.00 | 73 | 1012.5 |
| 20260906005546 | 30 | 0 | 0.0 | 1.6 | 0.00 | 0.00 | 0.00 | 72 | 1012.5 |
| 20260906005043 | 31 | 0 | 0.0 | 3.2 | 0.00 | 0.00 | 0.00 | 71 | 1012.4 |
| 20260906004607 | 31 | 0 | 0.0 | 3.2 | 0.00 | 0.00 | 0.00 | 70 | 1012.4 |
| 20260906004044 | 31 | 0 | 0.0 | 3.2 | 0.00 | 0.00 | 0.00 | 69 | 1012.3 |
| 20260906003544 | 31 | 75 | 0.0 | 4.8 | 0.00 | 0.00 | 0.00 | 68 | 1012.3 |
| 20260906003121 | 31 | 0 | 1.6 | 4.8 | 0.00 | 0.00 | 0.00 | 68 | 1012.3 |
| 20260906002543 | 32 | 91 | 3.2 | 4.8 | 0.00 | 0.00 | 0.00 | 67 | 1012.3 |
| 20260906002046 | 32 | 71 | 1.6 | 4.8 | 0.00 | 0.00 | 0.00 | 67 | 1012.2 |
| 20260906001615 | 32 | 77 | 0.0 | 6.4 | 0.00 | 0.00 | 0.00 | 66 | 1012.2 |
| 20260906001043 | 32 | 0 | 0.0 | 6.4 | 0.00 | 0.00 | 0.00 | 66 | 1012.2 |
| 20260906000545 | 32 | 0 | 0.0 | 6.4 | 0.00 | 0.00 | 0.00 | 66 | 1012.3 |
| 20260906000109 | 32 | 82 | 1.6 | 6.4 | 0.00 | 0.00 | 0.00 | 65 | 1012.2 |
| 20260905235543 | 32 | 110 | 3.2 | 8.0 | 0.00 | 0.00 | 0.00 | 64 | 1012.3 |
| 20260905235043 | 32 | 86 | 1.6 | 9.7 | 0.00 | 0.00 | 0.00 | 64 | 1012.1 |
| 20260905234608 | 32 | 101 | 4.8 | 9.7 | 0.00 | 0.00 | 0.00 | 64 | 1012.2 |
| 20260905234046 | 33 | 92 | 1.6 | 9.7 | 0.00 | 0.00 | 0.00 | 63 | 1012.2 |
| 20260905233545 | 33 | 79 | 1.6 | 8.0 | 0.00 | 0.00 | 0.00 | 63 | 1012.2 |
| 20260905233101 | 33 | 96 | 3.2 | 8.0 | 0.00 | 0.00 | 0.00 | 63 | 1012.2 |
| 20260905232543 | 33 | 102 | 1.6 | 8.0 | 0.00 | 0.00 | 0.00 | 62 | 1012.1 |
| 20260905232045 | 33 | 74 | 3.2 | 8.0 | 0.00 | 0.00 | 0.00 | 63 | 1012.2 |
| 20260905231558 | 33 | 79 | 1.6 | 11.3 | 0.00 | 0.00 | 0.00 | 63 | 1012.2 |
| 20260905231043 | 33 | 0 | 0.0 | 11.3 | 0.00 | 0.00 | 0.00 | 63 | 1012.1 |
| 20260905230548 | 33 | 62 | 3.2 | 16.1 | 0.00 | 0.00 | 0.00 | 62 | 1012.2 |
| 20260905230100 | 33 | 55 | 4.8 | 16.1 | 0.00 | 0.00 | 0.00 | 62 | 1012.1 |
| 20260905225546 | 33 | 132 | 3.2 | 12.9 | 0.00 | 0.00 | 0.00 | 61 | 1012.1 |
| 20260905225046 | 33 | 70 | 4.8 | 12.9 | 0.00 | 0.00 | 0.00 | 62 | 1012.2 |
| 20260905224556 | 33 | 60 | 3.2 | 9.7 | 0.00 | 0.00 | 0.00 | 61 | 1012.1 |
| 20260905224045 | 33 | 79 | 3.2 | 12.9 | 0.00 | 0.00 | 0.00 | 61 | 1012.0 |
| 20260905223545 | 33 | 63 | 4.8 | 12.9 | 0.00 | 0.00 | 0.00 | 61 | 1011.9 |
| 20260905223059 | 33 | 56 | 6.4 | 12.9 | 0.00 | 0.00 | 0.00 | 61 | 1011.8 |
| 20260905222544 | 33 | 107 | 4.8 | 12.9 | 0.00 | 0.00 | 0.00 | 62 | 1011.7 |
| 20260905222045 | 33 | 134 | 6.4 | 12.9 | 0.00 | 0.00 | 0.00 | 61 | 1011.7 |
| 20260905221602 | 33 | 144 | 4.8 | 12.9 | 0.00 | 0.00 | 0.00 | 61 | 1011.7 |
| 20260905221045 | 33 | 75 | 3.2 | 12.9 | 0.00 | 0.00 | 0.00 | 61 | 1011.8 |
| 20260905220545 | 33 | 146 | 4.8 | 12.9 | 0.00 | 0.00 | 0.00 | 61 | 1011.8 |
| 20260905220058 | 33 | 70 | 4.8 | 12.9 | 0.00 | 0.00 | 0.00 | 60 | 1011.9 |
| 20260905215545 | 33 | 125 | 4.8 | 12.9 | 0.00 | 0.00 | 0.00 | 60 | 1011.9 |
| 20260905215047 | 33 | 75 | 6.4 | 16.1 | 0.00 | 0.00 | 0.00 | 60 | 1012.0 |
| 20260905214557 | 33 | 80 | 3.2 | 16.1 | 0.00 | 0.00 | 0.00 | 60 | 1012.0 |
| 20260905214044 | 33 | 75 | 6.4 | 16.1 | 0.00 | 0.00 | 0.00 | 60 | 1012.0 |
| 20260905213548 | 33 | 64 | 3.2 | 9.7 | 0.00 | 0.00 | 0.00 | 59 | 1012.1 |
| 20260905213105 | 32 | 103 | 4.8 | 11.3 | 0.00 | 0.00 | 0.00 | 61 | 1012.3 |
| 20260905212545 | 32 | 90 | 4.8 | 12.9 | 0.00 | 0.00 | 0.00 | 60 | 1012.4 |
| 20260905212044 | 32 | 60 | 6.4 | 12.9 | 0.00 | 0.00 | 0.00 | 59 | 1012.5 |
| 20260905211557 | 32 | 69 | 3.2 | 12.9 | 0.00 | 0.00 | 0.00 | 59 | 1012.7 |
| 20260905211045 | 32 | 126 | 4.8 | 12.9 | 0.00 | 0.00 | 0.00 | 59 | 1012.7 |
| 20260905210549 | 32 | 66 | 4.8 | 12.9 | 0.00 | 0.00 | 0.00 | 60 | 1012.6 |
| 20260905210059 | 32 | 62 | 4.8 | 12.9 | 0.00 | 0.00 | 0.00 | 60 | 1012.8 |
| 20260905205544 | 32 | 68 | 4.8 | 12.9 | 0.00 | 0.00 | 0.00 | 60 | 1012.9 |
| 20260905205044 | 32 | 60 | 6.4 | 12.9 | 0.00 | 0.00 | 0.00 | 59 | 1013.0 |
| 20260905204601 | 32 | 49 | 8.0 | 12.9 | 0.00 | 0.00 | 0.00 | 57 | 1012.9 |
| 20260905204047 | 32 | 54 | 4.8 | 12.9 | 0.00 | 0.00 | 0.00 | 58 | 1013.1 |
| 20260905203546 | 32 | 72 | 4.8 | 12.9 | 0.00 | 0.00 | 0.00 | 59 | 1013.3 |
| 20260905203101 | 32 | 64 | 6.4 | 16.1 | 0.00 | 0.00 | 0.00 | 58 | 1013.4 |
| 20260905202544 | 32 | 80 | 4.8 | 16.1 | 0.00 | 0.00 | 0.00 | 58 | 1013.5 |
| 20260905202043 | 32 | 49 | 6.4 | 14.5 | 0.00 | 0.00 | 0.00 | 57 | 1013.8 |
| 20260905201558 | 32 | 72 | 4.8 | 16.1 | 0.00 | 0.00 | 0.00 | 57 | 1014.0 |
| 20260905201042 | 32 | 113 | 3.2 | 17.7 | 0.00 | 0.00 | 0.00 | 58 | 1014.1 |
| 20260905200544 | 32 | 66 | 4.8 | 17.7 | 0.00 | 0.00 | 0.00 | 58 | 1014.2 |
| 20260905200106 | 32 | 70 | 9.7 | 17.7 | 0.00 | 0.00 | 0.00 | 58 | 1014.2 |
| 20260905195544 | 32 | 63 | 6.4 | 12.9 | 0.00 | 0.00 | 0.00 | 59 | 1014.2 |
| 20260905195042 | 32 | 53 | 4.8 | 12.9 | 0.00 | 0.00 | 0.00 | 62 | 1014.2 |
| 20260905194604 | 32 | 72 | 4.8 | 12.9 | 0.00 | 0.00 | 0.00 | 63 | 1014.2 |
| 20260905194044 | 32 | 70 | 6.4 | 20.9 | 0.00 | 0.00 | 0.00 | 61 | 1014.3 |
| 20260905193542 | 32 | 73 | 4.8 | 20.9 | 0.00 | 0.00 | 0.00 | 61 | 1014.3 |
| 20260905193109 | 31 | 131 | 9.7 | 19.3 | 0.00 | 0.00 | 0.00 | 61 | 1014.3 |
| 20260905192545 | 31 | 78 | 8.0 | 14.5 | 0.00 | 0.00 | 0.00 | 62 | 1014.4 |
| 20260905192041 | 32 | 120 | 4.8 | 14.5 | 0.00 | 0.00 | 0.00 | 64 | 1014.5 |
| 20260905191600 | 32 | 56 | 4.8 | 12.9 | 0.00 | 0.00 | 0.00 | 63 | 1014.6 |
| 20260905191041 | 31 | 65 | 6.4 | 12.9 | 0.00 | 0.00 | 0.00 | 63 | 1014.9 |
| 20260905190542 | 32 | 74 | 4.8 | 12.9 | 0.00 | 0.00 | 0.00 | 64 | 1015.0 |
| 20260905190059 | 31 | 61 | 3.2 | 12.9 | 0.00 | 0.00 | 0.00 | 65 | 1015.0 |
| 20260905185544 | 31 | 70 | 6.4 | 12.9 | 0.00 | 0.00 | 0.00 | 65 | 1015.3 |
| 20260905185046 | 31 | 54 | 4.8 | 19.3 | 0.00 | 0.00 | 0.00 | 64 | 1015.5 |
| 20260905184611 | 31 | 57 | 8.0 | 19.3 | 0.00 | 0.00 | 0.00 | 65 | 1015.6 |
| 20260905184045 | 31 | 99 | 4.8 | 16.1 | 0.00 | 0.00 | 0.00 | 65 | 1015.7 |
| 20260905183546 | 31 | 54 | 6.4 | 16.1 | 0.00 | 0.00 | 0.00 | 64 | 1015.8 |
| 20260905183102 | 31 | 68 | 6.4 | 16.1 | 0.00 | 0.00 | 0.00 | 66 | 1015.9 |
| 20260905182544 | 31 | 55 | 6.4 | 14.5 | 0.00 | 0.00 | 0.00 | 66 | 1015.9 |
| 20260905182045 | 31 | 55 | 4.8 | 9.7 | 0.00 | 0.00 | 0.00 | 67 | 1016.0 |
| 20260905181600 | 31 | 54 | 4.8 | 19.3 | 0.00 | 0.00 | 0.00 | 66 | 1016.0 |